TimeAKDT,TemperatureF,Dew PointF,Humidity,Sea Level PressureIn,VisibilityMPH,Wind Direction,Wind SpeedMPH,Gust SpeedMPH,PrecipitationIn,Events,Conditions,WindDirDegrees,DateUTC
12:53 AM,-9.0,-14.1,79,30.61,10.0,North,-9999.0,-,N/A,,Unknown,0,2013-03-15 08:53:00
1:53 AM,-9.0,-13.0,83,30.58,7.0,North,-9999.0,-,N/A,,Clear,0,2013-03-15 09:53:00
2:53 AM,-9.0,-14.1,79,30.57,10.0,North,-9999.0,-,N/A,,Clear,0,2013-03-15 10:53:00
3:53 AM,-9.0,-13.0,83,30.53,5.0,North,-9999.0,-,N/A,,Clear,0,2013-03-15 11:53:00
4:53 AM,-9.0,-13.0,83,30.50,3.0,North,-9999.0,-,N/A,,Clear,0,2013-03-15 12:53:00
5:53 AM,-7.1,-11.9,79,30.50,9.0,North,-9999.0,-,N/A,,Clear,0,2013-03-15 13:53:00
6:53 AM,-7.1,-11.9,79,30.48,7.0,North,-9999.0,-,N/A,,Clear,0,2013-03-15 14:53:00
7:53 AM,-7.1,-11.9,79,30.46,4.0,North,-9999.0,-,N/A,,Haze,0,2013-03-15 15:53:00
8:18 AM,-5.8,-11.2,77,30.44,2.0,North,-9999.0,-,N/A,,Haze,0,2013-03-15 16:18:00
8:25 AM,-5.8,-11.2,77,30.43,1.5,North,-9999.0,-,N/A,,Haze,0,2013-03-15 16:25:00
8:38 AM,-5.8,-11.2,77,30.43,2.0,ENE,27.6,-,N/A,,Haze,60,2013-03-15 16:38:00
8:53 AM,-6.0,-11.0,79,30.42,1.2,ENE,28.8,35.7,N/A,,Haze,60,2013-03-15 16:53:00
9:53 AM,-5.1,-9.0,83,30.39,-9999.0,ENE,31.1,59.8,N/A,,Clear,60,2013-03-15 17:53:00
10:05 AM,-5.8,-9.4,84,30.38,1.0,ENE,32.2,-,N/A,,Haze,60,2013-03-15 18:05:00
10:15 AM,-5.8,-9.4,84,30.38,0.8,ENE,31.1,-,N/A,,Haze,60,2013-03-15 18:15:00
10:25 AM,-5.8,-9.4,84,30.39,1.2,ENE,29.9,-,N/A,,Haze,60,2013-03-15 18:25:00
10:45 AM,-4.0,-9.4,78,30.38,2.5,ENE,28.8,-,N/A,,Haze,60,2013-03-15 18:45:00
10:53 AM,-4.0,-9.9,76,30.38,2.5,ENE,26.5,-,N/A,,Haze,60,2013-03-15 18:53:00
11:34 AM,-2.2,-9.4,71,30.36,1.5,ENE,33.4,40.3,N/A,,Haze,60,2013-03-15 19:34:00
11:53 AM,-2.9,-8.0,79,30.38,2.0,ENE,28.8,-,N/A,,Haze,70,2013-03-15 19:53:00
12:04 PM,-2.2,-7.6,78,30.38,4.0,ENE,25.3,-,N/A,,Haze,70,2013-03-15 20:04:00
12:53 PM,-0.9,-6.0,79,30.38,9.0,ENE,24.2,-,N/A,,Clear,70,2013-03-15 20:53:00
1:53 PM,1.0,-4.0,79,30.35,6.0,ENE,24.2,-,N/A,,Haze,70,2013-03-15 21:53:00
2:53 PM,1.9,-2.9,80,30.32,5.0,ENE,28.8,-,N/A,Snow,Blowing Snow,60,2013-03-15 22:53:00
3:53 PM,1.9,-2.0,83,30.31,10.0,East,18.4,-,N/A,,Clear,80,2013-03-15 23:53:00
4:53 PM,1.9,-2.0,83,30.28,10.0,ENE,21.9,-,N/A,,Clear,70,2013-03-16 00:53:00
5:53 PM,1.9,-2.0,83,30.25,10.0,ENE,25.3,-,N/A,,Clear,60,2013-03-16 01:53:00
6:53 PM,1.9,-2.0,83,30.25,10.0,ENE,23.0,-,N/A,,Clear,70,2013-03-16 02:53:00
7:53 PM,1.0,-2.9,83,30.22,5.0,ENE,27.6,33.4,N/A,Snow,Blowing Snow,70,2013-03-16 03:53:00
8:53 PM,-0.0,-4.0,83,30.21,2.5,East,23.0,-,N/A,Snow,Blowing Snow,80,2013-03-16 04:53:00
9:53 PM,-0.9,-5.1,83,30.22,10.0,East,17.3,-,N/A,,Clear,80,2013-03-16 05:53:00
10:53 PM,-2.0,-5.1,87,30.22,8.0,East,17.3,-,N/A,,Clear,80,2013-03-16 06:53:00
11:53 PM,-2.9,-6.0,87,30.21,7.0,ENE,20.7,-,N/A,,Clear,70,2013-03-16 07:53:00